Location: Moscow
(55.7500°N, 37.5830°E)
Time: 11:04:52
(UTC+03:00)

Explorer 7 - Pass Details

Date: 06 December 2021
Orbit: 483 x 674 km, 50.3° (Epoch: 19 January)

Event Time Altitude Azimuth Distance (km) Brightness Sun altitude
Rises 05:06:04 0° 200° (SSW) 2,846 - -28.9°
Reaches altitude 10° 05:09:28 10° 173° (S) 1,899 - -28.4°
Exits shadow 05:10:18 12° 163° (SSE) 1,757 9.5 -28.3°
Maximum altitude 05:11:32 13° 144° (SE) 1,665 9.6 -28.1°
Drops below altitude 10° 05:13:34 10° 115° (ESE) 1,844 10.3 -27.8°
Sets 05:16:45 0° 89° (E) 2,694 11.6 -27.3°
